Hourly Data Report for April 11, 2020

TORONTO CITY
ONTARIO
Current Station Operator: ECCC - MSC

43°40'00.000" N
79°24'00.000" W
112.50 m
6158355
71508
XTO

Download Data

Hourly Data (April 2020)
Hourly Data Report for April 11, 2020
TIME
LST
Temp Definition
°C
Dew Point Definition
°C
Rel Hum Definition
%
Precip. Amount Definition
mm

Wind Dir Definition
10's deg

Wind Spd Definition
km/h
Visibility Definition
km
Stn Press Definition
kPa
Hmdx Definition


Wind Chill Definition


Weather Definition


00:00 1.6 -7.4 51 0.0       99.74     LegendNANA
01:00 1.2 -6.4 57 0.0       99.74     LegendNANA
02:00 0.8 -6.0 60 0.0       99.77     LegendNANA
03:00 0.7 -6.0 61 0.0       99.78     LegendNANA
04:00 0.8 -6.1 60 0.0       99.78     LegendNANA
05:00 0.3 -6.3 61 0.0       99.80     LegendNANA
06:00 0.3 -6.1 63 0.0       99.87     LegendNANA
07:00 1.5 -5.6 59 0.0       99.94     LegendNANA
08:00 2.5 -5.6 55 0.0       100.00     LegendNANA
09:00 4.8 -5.9 46 0.0       100.01     LegendNANA
10:00 5.4 -6.8 41 0.0       100.05     LegendNANA
11:00 6.6 -6.8 38 0.0       100.06     LegendNANA
12:00 6.6 -7.0 37 0.4       100.05     LegendNANA
13:00 6.9 -6.7 37 0.2       100.02     LegendNANA
14:00 7.8 -5.7 38 0.0       100.00     LegendNANA
15:00 8.2 -4.9 39 0.2       99.99     LegendNANA
16:00 9.0 -4.2 39 0.0       99.95     LegendNANA
17:00 9.5 -5.2 35 0.0       99.94     LegendNANA
18:00 7.7 -2.0 50 0.2       99.95     LegendNANA
19:00 7.5 -0.1 59 0.0       99.96     LegendNANA
20:00 7.7 -1.6 52 0.0       100.01     LegendNANA
21:00 7.5 -2.4 49 0.0       100.01     LegendNANA
22:00 6.3 -1.3 58 0.0       100.01     LegendNANA
23:00 6.2 -0.9 60 0.0       100.02     LegendNANA

Notes on Data Quality.

Legend

  • E = Estimated
  • M = Missing
  • NA = Not Available*
  • [empty] = Indicates an unobserved value
Date modified: